Flag for Poland Weather past 2 weeks in Elbląg, Poland

Now
72 °F

Overcast.


Feels Like: 73 °F
Forecast: 55 / 66 °F
Wind: 3 mph from South

Location: Hel

Current Time: Sep 1, 2015 at 12:15:47 PM

Latest Report: Sep 1, 2015 at 11:00 AM


Visibility: 9 mi

Pressure: 29.67 "Hg

Humidity: 78%

Dew point: 65 °F

Location of ElblągLocation

Historic Weather in Elbląg — Graph

°F

Elbląg temperature yesterday

Maximum temperature yesterday: 70 °F (at 3:00 PM)
Minimum temperature yesterday: 60 °F (at 7:00 AM)
Average temperature yesterday: 65 °F

Past Weeks' High & Low Weather Summary

 TemperatureHumidityPressure
High77 °F (Aug 27, 1:00 PM)97% (Aug 21, 8:00 AM)30.41 "Hg (Aug 21, 8:00 AM)
Low53 °F (Aug 22, 6:00 AM)45% (Aug 20, 12:00 PM)29.67 "Hg (Sep 1, 11:00 AM)
Average65 °F76%30.10 "Hg
* Reported Aug 17 11:00 AM — Sep 1 11:00 AM, Elbląg, Weather by CustomWeather, © 2015

Note: Actual official high and low records may vary slightly from our data, if they occured in-between our weather recording intervals... More about our weather records

Advertising

Elbląg weather history for previous 24 hours

 ConditionsComfort  
Time TempWeatherWind HumidityBarometerVisibility
11:00 AM
Tue, Sep 1
72 °FOvercast.3 mph78%29.67 "Hg9 mi
10:00 AM71 °FOvercast.3 mph78%29.68 "Hg9 mi
9:00 AM70 °FPartly sunny.3 mph80%29.67 "Hg12 mi
8:00 AM68 °FPartly sunny.5 mph83%29.68 "Hg12 mi
7:00 AM67 °FPartly sunny.5 mph85%29.68 "Hg12 mi
6:00 AM65 °FScattered clouds.3 mph89%29.69 "Hg12 mi
4:00 AM65 °FPassing clouds.3 mph89%29.72 "Hg12 mi
3:00 AM65 °FPassing clouds.3 mph88%29.74 "Hg12 mi
2:00 AM65 °FPassing clouds.3 mph91%29.77 "Hg12 mi
1:00 AM66 °FPassing clouds.3 mph88%29.80 "Hg12 mi
12:00 AM66 °FPassing clouds.5 mph86%29.82 "Hg12 mi
10:00 PM
Mon, Aug 31
67 °FPassing clouds.6 mph85%29.86 "Hg12 mi
9:00 PM67 °FPassing clouds.6 mph85%29.88 "Hg12 mi
8:00 PM67 °FPassing clouds.6 mph87%29.90 "Hg16 mi
7:00 PM68 °FPartly sunny.5 mph83%29.91 "Hg16 mi
6:00 PM69 °FPartly sunny.6 mph78%29.93 "Hg16 mi
5:00 PM69 °FPartly sunny.5 mph80%29.96 "Hg16 mi
4:00 PM70 °FPartly sunny.3 mph75%29.98 "Hg16 mi
3:00 PM70 °FPartly sunny.5 mph74%29.99 "Hg16 mi
2:00 PM68 °FOvercast.5 mph78%30.02 "Hg16 mi
1:00 PM67 °FOvercast.5 mph76%30.03 "Hg16 mi
12:00 PM68 °FPartly sunny.5 mph74%30.03 "Hg19 mi
Weather by CustomWeather, © 2015

See weather overviewHow to use our weather pages